Location: Newark
(40.3500°N, 15.2333°E)
Time: 20:47:41
(UTC+00:00)

Transit 2A - All Passes

Search period start: 22 January 2020 00:00
Search period end: 01 February 2020 00:00
Orbit: 601 x 958 km, 66.7° (Epoch: 22 January)

Date Brightness Start Highest point End Pass type
(mag) Time Alt. Az. Time Alt. Az. Time Alt. Az.
22 Jan - 03:11:16 10° N 03:14:21 17° NE 03:17:35 10° E visible
22 Jan - 04:53:05 10° NW 04:57:53 71° WSW 05:03:11 10° SSE visible
22 Jan - 19:33:12 10° SW 19:37:39 71° WNW 19:42:00 10° NNE night (unlit)
23 Jan - 02:38:06 10° NNE 02:39:58 12° NE 02:41:52 10° ENE visible
23 Jan - 04:18:57 10° NNW 04:23:46 78° ENE 04:29:05 10° SSE visible
23 Jan - 06:04:24 10° W 06:06:26 12° WSW 06:08:32 10° SW daylight
23 Jan - 18:59:06 10° SSW 19:03:33 72° ESE 19:07:52 10° NNE visible
23 Jan - 20:45:00 10° WNW 20:47:10 13° NW 20:49:20 10° NNW night (unlit)
24 Jan - 03:44:56 10° NNW 03:49:37 52° ENE 03:54:47 10° SE visible
24 Jan - 05:29:00 10° WNW 05:32:28 19° WSW 05:36:10 10° SSW visible
24 Jan - 18:25:14 10° S 18:29:28 44° ESE 18:33:37 10° NE visible
24 Jan - 20:09:38 10° W 20:12:48 19° NW 20:15:57 10° N night (unlit)
25 Jan - 03:11:00 10° NNW 03:15:26 36° NE 03:20:15 10° ESE visible
25 Jan - 04:54:16 10° NW 04:58:29 29° WSW 05:03:02 10° S visible
25 Jan - 17:51:39 10° S 17:55:27 28° ESE 17:59:11 10° NE visible
25 Jan - 19:34:43 10° WSW 19:38:30 27° NW 19:42:16 10° N visible
26 Jan - 02:37:12 10° N 02:41:11 25° NE 02:45:28 10° ESE visible
26 Jan - 04:19:49 10° NW 04:24:26 43° WSW 04:29:31 10° S visible
26 Jan - 17:18:30 10° SSE 17:21:29 18° ESE 17:24:26 10° ENE visible
26 Jan - 19:00:06 10° SW 19:04:16 41° NW 19:08:24 10° NNE visible
27 Jan - 02:03:32 10° N 02:06:53 18° NE 02:10:23 10° E visible
27 Jan - 03:45:32 10° NW 03:50:22 65° WSW 03:55:42 10° SSE visible
27 Jan - 16:46:19 10° ESE 16:47:33 11° ESE 16:48:47 10° E visible
27 Jan - 18:25:42 10° SW 18:30:06 65° WNW 18:34:25 10° NNE visible
28 Jan - 01:30:12 10° NNE 01:32:30 13° NE 01:34:52 10° ENE night (unlit)
28 Jan - 03:11:23 10° NNW 03:16:16 85° ENE 03:21:39 10° SSE visible
28 Jan - 04:57:16 10° W 04:58:53 11° WSW 05:00:32 10° WSW visible
28 Jan - 17:51:33 10° SSW 17:55:59 80° ESE 18:00:19 10° NNE visible
28 Jan - 19:37:48 10° WNW 19:39:41 12° NW 19:41:34 10° NNW visible
29 Jan - 02:37:19 10° NNW 02:42:07 57° ENE 02:47:23 10° SE visible
29 Jan - 04:21:35 10° WNW 04:24:56 18° WSW 04:28:27 10° SSW visible
29 Jan - 17:17:38 10° S 17:21:54 49° ESE 17:26:06 10° NE visible
29 Jan - 19:02:19 10° W 19:05:18 18° NW 19:08:17 10° N visible
30 Jan - 02:03:22 10° NNW 02:07:55 39° NE 02:12:54 10° SE visible
30 Jan - 03:46:47 10° NW 03:50:57 27° WSW 03:55:26 10° SSW visible
30 Jan - 16:43:59 10° S 16:47:53 31° ESE 16:51:42 10° NE visible
30 Jan - 18:27:20 10° WSW 18:30:59 25° NW 18:34:38 10° N visible
31 Jan - 01:29:32 10° N 01:33:42 28° NE 01:38:11 10° ESE night (unlit)
31 Jan - 03:12:17 10° NW 03:16:55 40° WSW 03:21:58 10° S visible
31 Jan - 16:10:43 10° SSE 16:13:54 20° ESE 16:17:02 10° ENE daylight
31 Jan - 17:52:39 10° WSW 17:56:45 37° NW 18:00:48 10° NNE visible
